Showing default

GENA-OT-1, 66774

Orbit data source: Space-Track

GENA-OT-1, 66774 is a German payload satellite in SSO that was launched on Fri, 28 Nov 2025 UTC via an FALCON 9 launch vehicle from the Air Force Western Test Range (AFWTR). Payload-class satellites include a variety of spacecraft equipped with specific instruments for various scientific and technological missions. These include communications satellites like Starlink; space stations such as the ISS; scientific satellites like the Hubble; Earth observation satellites from companies like Planet Labs, Umbra, and HawkEye 360; GPS; miniature CubeSats for education and research; and military/defense satellites.

Loading next visibility...
Identifier
66774, 2025-276DN
Orbit
SSO
Country
Flag of DEDE / GER
Related business
Manufacturer
OroraTech
Mission
Operational Commercial Technology
Bus & Motor
CUBESAT 12U, Unknown motor
Mass
~15 kg wet, ~15 kg dry
Launch date (UTC)
2025-11-28 (6 months ago)
Launch vehicle
FALCON 9
Launch site
Air Force Western Test Range (AFWTR)
Object type
Payload
Rocket body
Debris
Shape & HBR
Box + 2 Pan, 0.2 m
Radar Cross Section
0.092 m²

Expand to show TLE details & history
Last TLE update: 6 hours ago

TLE from 6 hours ago
0 GENA-OT-1
1 66774U 25276DN  26144.95325500  .00005164  00000-0  23736-3 0  9998
2 66774  97.4208 219.2229 0000479  41.6845 318.4427 15.20800371 26911
Epoch: 2026-05-24T22:52Z
TLE epoch observation values (Epoch: 2026-05-24T22:52:41.231Z)
Latitude
0.00001°
Longitude
-6.49691°
Altitude
506.269 km
Speed
7.611 km/s
True Right ascension
14h 36m 53s
True Declination
0° 00' 00"
Sunlit
Object was in full shadow at epoch
Visualization orbit readout
Latitude
Unknown
Longitude
Unknown
Altitude
Unknown
Speed
Unknown
Apparent Right ascension
Unknown
Apparent Declination
Unknown
Sunlit
N/A
Visualization observer readout
Local Sidereal Time
14:14:07
Azimuth
Unknown
Elevation
Unknown
Doppler factor
Unknown
Orbital elements
Apogee altitude
500.72 km
Perigee altitude
500.061 km
Semi-major axis
6,878.528 km
Eccentricity
0.00005
Inclination
97.4208°
RAAN
219.2229°
Arg. of periapsis
41.6845°
True anomaly
318.43906°
Mean anomaly
318.4427°
Eccentric anomaly
318.44088°
Mean motion
3.80452 °/min
Orbital period
94.62 mins
BSTAR
0.00023736
Loading maneuver chart data...
Computing Atmospheric mass density...
Loading historical data...
Loading historical data...
Loading historical data...
Loading historical data...
Loading historical data...
Loading historical data...
Loading historical data...

Documentation

Showing up to 5 results
|